Regional Weather Roundup
Issued by NWS

Home | Current Version | Previous Version | Graphics & Text | Print | Product List | Glossary Off
Versions: 1 2 3 4 5 6 7 8 9 10 11 12 13 14 15 16 17 18 19 20 21 22 23 24 25 26 27 28 29 30 31 32 33 34 35 36 37 38 39 40 41 42 43 44 45 46 47 48 49 50

000
ASUS43 KMKX 110411
RWRWI

WISCONSIN REGIONAL WEATHER ROUNDUP
NATIONAL WEATHER SERVICE MILWAUKEE/SULLIVAN WI
1000 PM CST SAT DEC 10 2016

NOTE: "FAIR" INDICATES FEW OR NO CLOUDS BELOW 12,000 FEET WITH NO
SIGNIFICANT WEATHER AND/OR OBSTRUCTIONS TO VISIBILITY.

WIZ001-002-006>008-014>016-023>028-110500-
NORTHWEST WISCONSIN

CITY           SKY/WX    TMP DP  RH WIND       PRES   REMARKS
SUPERIOR ARPT  CLOUDY     8   3  78 SE6       30.27F WCI  -2
ASHLAND        CLOUDY     6   1  80 E3        30.27F
HAYWARD        CLOUDY    11   3  70 SE3       30.20F
SIREN          LGT SNOW  11   6  81 CALM      30.22F
CUMBERLAND     LGT SNOW  10   7  85 SE6       30.19F WCI   1
RICE LAKE      LGT SNOW  12   8  85 E5        30.22F WCI   4
CHETEK         LGT SNOW  11   8  87 SE6       30.21F WCI   2
LADYSMITH      LGT SNOW  12   8  85 E5        30.23F WCI   4
EAU CLAIRE     LGT SNOW  13  10  88 E6        30.22F FOG     WCI   4
MENOMONIE      LGT SNOW  14  11  88 E5        30.22F WCI   6
NEW RICHMOND   LGT SNOW  13   8  83 E7        30.20F WCI   2
OSCEOLA        LGT SNOW  13   9  85 E6        30.24F WCI   4
$$

WIZ003>005-009-010-017-018-110500-
NORTH CENTRAL WISCONSIN

CITY           SKY/WX    TMP DP  RH WIND       PRES   REMARKS
MANITOWISH WTR CLOUDY    -1  -4  87 CALM      30.20S
ARBOR VITAE    CLOUDY     5   1  83 CALM      30.20F
WOODRUFF       CLOUDY     5   1  83 CALM      30.20F
RHINELANDER    CLOUDY     9   3  77 CALM      30.21F
EAGLE RIVER    CLOUDY     3  -1  81 CALM      30.20F
LAND O LAKES   CLOUDY    -2  -5  84 CALM      30.22F
PHILLIPS       FLURRIES   8   4  82 CALM      30.20F
TOMAHAWK       LGT SNOW   9   4  81 CALM      30.21F
MEDFORD        LGT SNOW  10   6  85 E3        30.19F
MERRILL        LGT SNOW  10   6  81 CALM      30.23F
$$

WIZ029-030-035-036-043>047-110500-
CENTRAL WISCONSIN

CITY           SKY/WX    TMP DP  RH WIND       PRES   REMARKS
WAUSAU         LGT SNOW  10   7  87 E7        30.23F FOG     WCI  -1
MOSINEE        LGT SNOW  12  10  92 E3        30.24F
MARSHFIELD     LGT SNOW  13   9  84 SE7       30.21F FOG     WCI   3
STEVENS POINT  MIX PCPN  12  10  89 CALM      30.25F
WAUPACA        LGT SNOW  18  13  84 CALM      30.29S
WAUTOMA        LGT SNOW  15  13  91 E5        30.28F FOG     WCI   8
WISC RAPIDS    LGT SNOW  15  12  88 E5        30.26F FOG     WCI   8
CAMP DOUGLAS   LGT SNOW  16  13  88 E6        30.23F FOG     WCI   7
$$

WIZ011>013-019>022-031-037>040-048>050-110500-
NORTHEAST WISCONSIN

CITY           SKY/WX    TMP DP  RH WIND       PRES   REMARKS
ANTIGO         CLOUDY    10   3  75 CALM      30.21F
SHAWANO        MIX PCPN  16   9  74 CALM      30.31R
OCONTO         CLOUDY    14   8  77 CALM      30.32R
STURGEON BAY   CLOUDY    16  10  77 CALM      30.32S
GREEN BAY      LGT SNOW  19  12  74 SW3       30.31S
MANITOWOC      LGT SNOW  18  14  86 MISG      30.33R FOG
APPLETON       LGT SNOW  16  10  79 VRB5      30.27S WCI   9
CLINTONVILLE   LGT SNOW  18  12  79 CALM      30.29F
OSHKOSH        LGT SNOW  17  14  88 SE3       30.29S FOG
$$

WIZ032>034-041-042-053>061-110500-
SOUTHWEST WISCONSIN

CITY           SKY/WX    TMP DP  RH WIND       PRES   REMARKS
LA CROSSE      LGT SNOW  18  14  84 E3        30.23F FOG
SPARTA         LGT SNOW  16  14  91 E5        30.24F WCI   9
VIROQUA        CLOUDY    16  15  94 E8        30.17F WCI   5
BOSCOBEL       LGT SNOW  20  17  88 NE3       30.23F FOG
PRAIRIE DU CHI LGT SNOW  21  17  85 E7        30.21F WCI  13
PLATTEVILLE    CLOUDY    21  21  98 SE8       30.20F WCI  12
$$

WIZ056-057-062-063-064-067-068-110500-
SOUTH CENTRAL WISCONSIN

CITY           SKY/WX    TMP DP  RH WIND       PRES   REMARKS
REEDSBURG      LGT SNOW  17  16  96 E3        30.23F
BARABOO/DELLS  LGT SNOW  18  16  92 E6        30.23F VSB 3/4 WCI   9
LONE ROCK      LGT SNOW  20  16  84 E8        30.24F FOG     WCI  10
MINERAL POINT  LGT SNOW  23  21  93 SE7       30.20S WCI  15
MADISON        LGT SNOW  20  17  88 SE7       30.25F VSB 1   WCI  11
MIDDLETON      CLOUDY    21  19  90 SE7       30.24F WCI  13
WATERTOWN      LGT SNOW  20  19  98 SE5       30.27F WCI  13
MONROE         FLURRIES  21  19  93 SE7       30.22S WCI  13
JANESVILLE     LGT SNOW  23  21  93 SE6       30.26F WCI  16
$$

WIZ051-052-058>065-066-070>072-110500-
SOUTHEAST WISCONSIN

CITY           SKY/WX    TMP DP  RH WIND       PRES   REMARKS
MILWAUKEE      LGT SNOW  22  18  85 S5        30.30F FOG     WCI  16
WAUKESHA       LGT SNOW  19  18  93 SE3       30.29F
MILWAUKEE/TIMM LGT SNOW  21  18  86 CALM      30.31S
RACINE         LGT SNOW  22  18  85 S5        30.31F FOG     WCI  16
BURLINGTON     LGT SNOW  25  24  95 CALM      30.28F
KENOSHA        LGT SNOW  22  18  85 SE6       30.30F VSB 1   WCI  14
FOND DU LAC    LGT SNOW  19  14  81 SE3       30.29S
SHEBOYGAN      LGT SNOW  18  14  84 CALM      30.30F FOG
WEST BEND      LGT SNOW  19  19 100 CALM      30.29S VSB 1
JUNEAU         SNOW      19  17  93 E5        30.27F VSB 1/2 WCI  12
$$

LSZ147-162-110500-
LAKE SUPERIOR

STATION/POSITION TIME  TEMP    WIND        PRES    WAVE
                       AIR SEA DIR/SP/G            HT/PER
                 (UTC) (F)     (DEG/KT/KT) (MB)    (FT/S)
DEVILS ISLAND    0400   13     190/  7/  9 1026.6F
PORT WING        0340    6     120/  2/  4 1025.4S
SAXON HARBOR     0330    1     190/  5/  7 1025.4F
$$

LMZ867-665-643>646-110500-
LAKE MICHIGAN

STATION/POSITION TIME  TEMP    WIND        PRES    WAVE
                       AIR SEA DIR/SP/G            HT/PER
                 (UTC) (F)     (DEG/KT/KT) (MB)    (FT/S)
CHAMBERS ISLAND  0340   17     230/  4/  8 1026.1S
NORTHPORT PIER   0340   17      CALM  /  3 1026.4S
SISTER BAY       0350   19     220/  8/  9   N/A
ALGOMA LAKESHORE 0351             CALM       N/A
KEWAUNEE LAKESHO 0348   18      CALM  /  4 1026.0F
SHEBOYGAN LAKESH 0400   19     230/  2/  3 1027.5F
PORT WASHINGTON  0340   21     250/  3/  6 1027.8S
KENOSHA   LAKESH 0400   22     200/  5/  7 1026.1
$$

TC  - TEMPERATURE IN CELSIUS
VSB - VISIBILITY IN STATUTE MILES
WCI - WIND CHILL INDEX
HX  - HEAT INDEX




USA.gov is the U.S. government's official web portal to all federal, state and local government web resources and services.